Breckenridge, TX

4:07 PM CST on November 16, 2019 (GMT -0600)
Stephens County

Weather History for KBKD - October, 2019

Change the Weather History Date:

Sunday, October 13, 2019

  Actual Average (KMWL) Record (KMWL)
Temperature  
Mean Temperature 68 °F -  
Max Temperature 85 °F 76 °F 93 °F (1999)
Min Temperature 51 °F 53 °F 43 °F (2006)
Cooling Degree Days 2    
Growing Degree Days 18 (Base 50)    
Moisture  
Dew Point 38 °F    
Average Humidity 37    
Maximum Humidity 63    
Minimum Humidity 19    
Precipitation  
Precipitation 0.00 in - - ()
Sea Level Pressure  
Sea Level Pressure 29.97 in    
Wind  
Wind Speed - (North)    
Max Wind Speed -    
Max Gust Speed -    
Visibility 6 miles    
Events      
Averages and records for this station are not official NWS values.
T = Trace of Precipitation, MM = Missing Value Source: NWS Daily Summary

Daily Weather History Graph

Daily Weather History Graph

Search for Another Location

Airport or City:

Astronomy

Oct. 13, 2019 Rise Set
Actual Time 7:37 AM CDT 7:05 PM CDT
Civil Twilight 7:13 AM CDT 7:29 PM CDT
Nautical Twilight 6:44 AM CDT 7:58 PM CDT
Astronomical Twilight 6:16 AM CDT 8:26 PM CDT
Moon 7:25 PM CDT (10/13) 7:18 AM CDT (10/13)
Length of Visible Light 12h 16m
Length of Day
11h 27m
Full, 100% of the Moon is Illuminated
Oct 13
Full
Oct 13
Full
Oct 21
Last Quarter
Oct 27
New
Nov 4
First Quarter

Hourly Weather History & Observations

Time (CDT) Temp. Dew Point Humidity Pressure Visibility Wind Dir Wind Speed Gust Speed Precip Events Conditions
12:15 AM 54.5 °F 31.5 °F 42% 30.02 in 7.0 mi North - - N/A   Clear
12:35 AM 54.9 °F 30.2 °F 39% 30.01 in 7.0 mi North - - N/A   Clear
12:55 AM 55.2 °F 31.1 °F 40% 30.01 in 7.0 mi North - - N/A   Clear
1:15 AM 54.5 °F 32.0 °F 42% 30.00 in 7.0 mi North - - N/A   Scattered Clouds
1:35 AM 55.4 °F 32.2 °F 41% 30.00 in 7.0 mi North - - N/A   Scattered Clouds
1:55 AM 55.6 °F 32.5 °F 42% 30.00 in 7.0 mi North - - N/A   Clear
2:15 AM 55.4 °F 32.5 °F 42% 30.00 in 7.0 mi North - - N/A   Clear
2:35 AM 55.0 °F 33.3 °F 44% 30.00 in 7.0 mi North - - N/A   Clear
2:55 AM 54.0 °F 34.7 °F 48% 30.00 in 7.0 mi North - - N/A   Clear
3:15 AM 53.6 °F 34.5 °F 48% 30.00 in 7.0 mi North - - N/A   Clear
3:35 AM 52.7 °F 34.9 °F 51% 30.00 in 7.0 mi North - - N/A   Scattered Clouds
3:55 AM 52.5 °F 34.2 °F 50% 30.00 in 10.0 mi North - - N/A   Mostly Cloudy
4:15 AM 52.7 °F 34.0 °F 49% 30.00 in 7.0 mi North - - N/A   Mostly Cloudy
4:35 AM 52.7 °F 34.5 °F 50% 30.00 in 7.0 mi North - - N/A   Overcast
4:55 AM 52.5 °F 35.4 °F 52% 30.00 in 7.0 mi North - - N/A   Mostly Cloudy
5:15 AM 52.0 °F 36.3 °F 55% 30.00 in 7.0 mi North - - N/A   Mostly Cloudy
5:35 AM 51.3 °F 36.1 °F 56% 30.00 in 7.0 mi North - - N/A   Scattered Clouds
5:55 AM 51.4 °F 36.0 °F 56% 30.01 in 7.0 mi North - - N/A   Scattered Clouds
6:15 AM 52.3 °F 35.6 °F 53% 30.01 in 5.0 mi North - - N/A   Haze
6:35 AM 51.6 °F 36.1 °F 56% 30.01 in 7.0 mi North - - N/A   Clear
6:55 AM 51.4 °F 36.7 °F 57% 30.02 in 5.0 mi North - - N/A   Haze
7:15 AM 51.4 °F 37.6 °F 59% 30.02 in 7.0 mi North - - N/A   Scattered Clouds
7:55 AM 51.8 °F 39.6 °F 63% 30.01 in 5.0 mi North - - N/A   Haze
8:15 AM 52.7 °F 40.1 °F 62% 30.02 in 7.0 mi North - - N/A   Clear
8:35 AM 54.5 °F 40.6 °F 60% 30.02 in 7.0 mi North - - N/A   Clear
8:55 AM 56.5 °F 40.1 °F 54% 30.02 in 5.0 mi North - - N/A   Haze
9:15 AM 58.8 °F 40.5 °F 51% 30.03 in 7.0 mi North - - N/A   Clear
9:35 AM 62.1 °F 38.8 °F 42% 30.02 in 7.0 mi North - - N/A   Clear
9:55 AM 64.4 °F 36.9 °F 36% 30.02 in 5.0 mi North - - N/A   Haze
10:35 AM 66.7 °F 36.5 °F 33% 30.02 in 5.0 mi North - - N/A   Haze
10:55 AM 69.1 °F 34.7 °F 28% 30.02 in 7.0 mi North - - N/A   Clear
11:15 AM 71.2 °F 35.2 °F 27% 30.02 in 7.0 mi North - - N/A   Clear
11:35 AM 72.9 °F 35.1 °F 25% 30.01 in 5.0 mi North - - N/A   Haze
11:55 AM 74.5 °F 35.1 °F 24% 30.01 in 7.0 mi North - - N/A   Clear
12:15 PM 75.7 °F 34.9 °F 23% 30.00 in 7.0 mi North - - N/A   Clear
12:35 PM 76.5 °F 35.4 °F 23% 29.99 in 5.0 mi North - - N/A   Haze
12:55 PM 77.5 °F 36.1 °F 22% 29.98 in 7.0 mi North - - N/A   Clear
1:15 PM 79.2 °F 36.5 °F 22% 29.98 in 5.0 mi North - - N/A   Haze
1:35 PM 79.9 °F 36.9 °F 21% 29.96 in 7.0 mi North - - N/A   Clear
1:55 PM 81.5 °F 37.0 °F 20% 29.95 in 7.0 mi North - - N/A   Clear
2:15 PM 81.5 °F 37.4 °F 21% 29.94 in 7.0 mi North - - N/A   Clear
2:35 PM 82.2 °F 37.9 °F 21% 29.93 in 5.0 mi North - - N/A   Haze
2:55 PM 83.3 °F 38.5 °F 20% 29.92 in 5.0 mi North - - N/A   Haze
3:15 PM 83.7 °F 38.8 °F 20% 29.91 in 5.0 mi North - - N/A   Haze
3:35 PM 84.0 °F 38.8 °F 20% 29.91 in 5.0 mi North - - N/A   Haze
3:55 PM 84.2 °F 38.8 °F 20% 29.91 in 7.0 mi North - - N/A   Clear
4:15 PM 84.7 °F 38.7 °F 19% 29.91 in 5.0 mi North - - N/A   Haze
4:35 PM 84.4 °F 38.7 °F 20% 29.90 in 4.0 mi North - - N/A   Haze
4:55 PM 83.7 °F 38.8 °F 20% 29.90 in 5.0 mi North - - N/A   Haze
5:15 PM 83.8 °F 39.6 °F 21% 29.90 in 5.0 mi North - - N/A   Haze
5:35 PM 83.3 °F 40.1 °F 22% 29.90 in 5.0 mi North - - N/A   Haze
5:55 PM 82.9 °F 40.6 °F 22% 29.91 in 5.0 mi North - - N/A   Haze
6:15 PM 81.5 °F 40.1 °F 23% 29.90 in 5.0 mi North - - N/A   Haze
6:35 PM 80.4 °F 41.0 °F 25% 29.91 in 7.0 mi North - - N/A   Clear
6:55 PM 78.1 °F 41.5 °F 27% 29.91 in 5.0 mi North - - N/A   Haze
7:15 PM 76.1 °F 42.4 °F 30% 29.92 in 7.0 mi North - - N/A   Clear
7:35 PM 73.4 °F 42.8 °F 33% 29.92 in 7.0 mi North - - N/A   Clear
7:55 PM 72.5 °F 42.8 °F 34% 29.93 in 7.0 mi North - - N/A   Clear
8:15 PM 70.9 °F 43.0 °F 37% 29.93 in 7.0 mi North - - N/A   Clear
8:35 PM 70.5 °F 44.1 °F 39% 29.93 in 7.0 mi North - - N/A   Clear
8:55 PM 70.3 °F 45.1 °F 40% 29.94 in 7.0 mi North - - N/A   Clear
9:15 PM 70.9 °F 44.6 °F 39% 29.94 in 7.0 mi North - - N/A   Clear
9:35 PM 70.7 °F 44.6 °F 39% 29.94 in 7.0 mi North - - N/A   Clear
9:55 PM 70.3 °F 44.8 °F 40% 29.94 in 7.0 mi North - - N/A   Clear
10:15 PM 69.8 °F 45.0 °F 41% 29.95 in 7.0 mi North - - N/A   Clear
10:35 PM 69.4 °F 45.5 °F 42% 29.95 in 7.0 mi North - - N/A   Clear
10:55 PM 69.8 °F 45.5 °F 42% 29.96 in 5.0 mi North - - N/A   Haze
11:15 PM 70.0 °F 45.7 °F 42% 29.95 in 7.0 mi North - - N/A   Clear
11:35 PM 70.7 °F 45.9 °F 41% 29.95 in 7.0 mi North - - N/A   Clear
11:55 PM 70.2 °F 46.4 °F 43% 29.95 in 7.0 mi North - - N/A   Clear